Location: *
(2.5500°S, 65.9667°W)
Time: 12:14:31
(UTC+00:00)

Ariane 3 Deb - Pass Details

Date: 26 October 2021
Orbit: 280 x 17996 km, 6.8° (Epoch: 28 November)

Event Time Altitude Azimuth Distance (km) Brightness Sun altitude
Rises 22:43:42 0° 264° (W) 15,630 12.0 -8.2°
Reaches altitude 10° 23:06:09 10° 265° (W) 10,103 10.1 -13.6°
Maximum altitude 23:31:16 71° 347° (NNW) 1,443 4.3 -19.7°
Enters shadow 23:33:52 35° 63° (ENE) 1,519 4.0 -20.3°
